Lapse_Rate
7.7 7.8 7.9 7.9 7.9 7.8 7.7 7.7 7.6 7.6 7.7 7.8 7.9 8.0 7.9 7.7 7.2 7.0 7.1 7.0 7.0 7.0 6.6 6.1 5.7 5.6 5.6 5.6 5.6 5.5 5.5 5.4 5.3 5.1 4.9 5.0 5.2 5.2 5.2 5.2 5.1 5.0 5.0 5.0
7.5 7.7 7.8 7.8 7.8 7.7 7.6 7.5 7.6 7.6 7.6 7.6 7.9 8.0 8.2 7.8 7.3 7.3 7.2 7.2 7.1 6.9 6.8 6.3 5.9 5.6 5.4 5.4 5.3 5.3 5.2 5.2 5.1 4.9 4.8 4.8 4.9 5.0 5.0 4.9 4.9 4.9 4.9 4.8
7.4 7.6 7.7 7.8 7.7 7.6 7.5 7.4 7.4 7.3 7.3 7.5 7.6 8.0 8.2 7.9 7.7 7.5 7.3 7.3 7.2 6.9 6.7 6.5 6.2 5.9 5.6 5.5 5.3 5.2 5.1 5.1 5.1 4.9 4.8 4.6 4.7 4.7 4.7 4.7 4.8 4.7 4.7 4.6
7.4 7.7 7.7 7.7 7.6 7.5 7.3 7.5 7.4 7.3 7.0 7.1 7.3 6.4 8.1 8.0 7.8 7.7 7.4 7.2 7.1 6.9 6.7 6.5 6.3 6.2 6.0 5.8 5.5 5.4 5.2 4.9 4.9 4.9 4.9 4.8 4.7 4.7 4.7 4.6 4.6 4.6 4.6 4.6
7.7 7.6 7.6 7.5 7.5 7.3 7.3 7.1 7.0 6.9 6.8 6.5 7.2 6.4 8.3 8.3 8.3 8.1 7.5 7.2 6.9 6.9 6.6 6.4 6.4 6.4 6.1 5.8 5.6 5.4 5.2 5.0 4.9 4.7 4.5 4.4 4.4 4.5 4.5 4.5 4.5 4.4 4.4 4.3
7.6 7.5 7.4 7.4 7.3 7.2 7.0 6.8 6.7 6.7 6.4 4.8 6.9 6.3 7.6 8.1 8.3 8.1 7.7 7.3 7.0 6.9 6.6 6.4 6.3 6.2 6.1 5.8 5.6 5.4 5.4 5.3 5.0 4.7 4.6 4.5 4.6 4.6 4.5 4.5 4.4 4.3 4.2 4.2
7.4 7.5 7.5 7.3 7.1 6.9 6.8 6.6 6.3 4.9 4.2 4.8 5.9 5.4 7.8 8.1 8.1 7.9 7.6 7.1 6.8 6.7 6.5 6.4 6.3 6.1 5.9 5.8 5.7 5.3 5.1 5.2 5.2 5.0 4.7 4.5 4.3 4.2 4.1 4.1 4.0 3.9 3.9 3.8
7.2 7.4 7.4 7.3 7.1 6.8 6.7 6.4 6.7 4.7 4.7 5.1 5.3 5.2 7.6 7.7 7.8 7.5 7.0 6.9 6.7 6.7 6.6 6.4 6.3 6.1 5.9 5.7 5.8 5.5 5.4 5.3 5.0 4.7 4.5 4.4 4.3 4.2 4.1 4.0 3.9 3.9 3.8 3.7
7.2 7.1 7.3 7.2 7.0 6.7 6.3 6.4 6.6 6.2 4.4 3.5 6.3 6.5 6.8 7.4 7.6 7.4 6.8 6.6 6.6 6.6 6.6 6.4 6.2 6.0 5.9 5.7 5.8 5.8 5.4 4.9 4.6 4.3 4.3 4.3 4.3 4.3 4.2 4.1 3.9 3.7 3.6 3.5
7.0 6.8 7.1 7.0 6.8 6.5 6.5 6.3 6.2 6.1 4.2 3.9 4.4 5.5 7.3 7.5 7.4 7.1 6.9 6.6 6.6 6.5 6.4 6.3 6.1 6.1 5.9 5.7 5.6 5.4 5.2 5.1 4.7 4.5 4.4 4.4 4.4 4.4 4.2 4.1 3.8 3.7 3.6 3.5
6.6 6.4 6.4 6.6 6.6 7.0 6.5 6.0 6.2 6.2 5.9 4.0 3.3 5.7 7.0 7.2 7.1 6.9 6.9 6.9 6.5 6.3 6.2 5.9 5.8 5.8 5.7 5.6 5.4 5.0 4.8 4.6 4.5 4.5 4.3 3.9 3.9 4.0 4.0 3.9 3.9 3.9 3.8 3.8
6.3 6.1 6.0 6.2 6.6 6.5 6.5 6.2 6.0 6.1 5.2 5.1 3.3 4.3 6.3 6.7 6.8 6.6 6.7 6.7 6.3 6.1 5.9 5.6 5.4 5.0 5.3 5.5 5.2 4.8 4.4 4.5 4.5 4.4 4.0 3.9 4.0 4.0 4.0 4.0 4.0 4.1 4.2 4.3
5.7 5.6 5.5 5.7 6.0 6.0 5.8 5.9 5.8 5.7 5.6 4.9 4.6 4.9 6.2 6.2 6.6 6.4 6.1 5.9 5.9 5.8 5.7 5.6 5.5 5.5 5.2 5.0 5.2 5.3 5.3 5.4 5.1 4.8 4.5 4.4 4.5 4.6 4.7 4.8 4.7 4.8 5.0 5.0
5.8 5.5 5.6 5.5 6.1 6.0 5.7 5.9 5.8 5.6 5.2 5.4 4.7 5.3 5.8 6.1 5.8 5.6 5.4 5.0 5.3 5.4 5.5 5.3 5.5 5.2 5.2 5.4 5.5 5.4 5.4 5.4 5.3 5.1 5.0 5.1 5.2 5.2 5.3 5.5 5.5 5.5 5.4 5.3
5.2 4.9 5.0 5.1 5.1 5.0 4.9 4.8 4.8 4.8 5.1 4.9 4.9 5.0 5.2 5.2 5.0 4.9 4.9 5.0 5.0 5.2 5.3 5.4 5.4 5.4 5.4 5.7 5.7 5.5 5.3 5.3 5.7 5.7 5.6 5.6 5.7 5.9 6.0 6.0 5.8 5.6 5.4 5.3
4.7 4.5 4.6 4.2 4.6 4.5 4.2 4.0 4.4 4.7 4.8 4.6 4.8 4.4 5.3 4.9 5.0 5.1 5.0 5.0 5.1 5.5 5.6 5.3 5.2 5.3 5.3 5.5 5.7 6.0 6.1 6.0 5.8 5.8 5.8 6.0 6.1 6.1 6.0 5.8 5.7 5.6 5.5 5.3
3.8 3.8 3.8 3.5 4.0 3.9 3.7 4.6 4.5 4.5 4.7 4.9 4.8 5.0 5.0 5.2 5.4 5.4 5.1 5.3 5.6 5.7 5.6 5.3 5.5 5.6 5.7 5.9 6.0 6.0 6.1 6.0 6.0 6.0 6.0 6.1 6.0 5.7 5.5 5.6 5.8 5.9 5.9 5.6
4.6 4.4 3.9 3.7 4.1 3.1 4.6 4.4 4.7 4.9 5.4 5.4 5.2 5.2 5.3 5.3 5.2 5.1 4.9 5.2 5.3 5.4 5.6 5.8 5.9 5.8 5.9 6.1 6.1 6.1 6.2 6.2 6.2 6.2 6.2 6.0 5.8 5.7 5.4 5.8 6.0 5.7 5.7 5.8
5.1 4.7 4.5 4.6 4.7 4.8 4.8 5.1 5.1 5.2 5.4 5.6 5.6 5.3 5.0 5.0 5.1 5.4 5.9 6.2 6.3 6.4 6.1 6.2 6.1 6.2 6.3 6.4 6.3 6.3 6.4 6.3 6.4 6.3 6.2 5.8 5.8 5.6 5.6 5.8 6.0 6.1 6.1 6.2
5.5 5.4 5.0 5.4 5.1 3.7 5.0 5.8 5.7 5.6 5.2 5.3 5.1 5.0 5.2 5.6 6.1 6.7 7.0 7.0 6.7 6.2 6.3 6.4 6.6 6.5 6.3 6.1 6.0 6.0 6.0 6.1 6.3 6.2 5.9 5.6 5.4 5.6 6.1 6.3 6.3 6.4 6.5 6.6
5.7 5.7 5.9 5.9 5.5 5.6 6.1 6.2 6.1 5.8 5.9 5.9 5.8 5.9 5.9 6.1 6.5 6.8 7.1 6.7 6.3 6.0 6.0 6.1 6.0 6.2 6.7 6.7 6.8 6.9 6.8 6.6 6.5 6.3 6.0 6.0 6.2 6.3 6.4 6.5 6.6 6.6 6.6 6.5
5.8 5.9 6.3 5.8 5.8 5.4 7.0 6.8 6.5 6.4 6.3 6.3 6.0 6.1 6.0 6.3 6.7 6.8 6.8 6.7 6.6 6.7 6.8 7.0 7.2 7.2 7.3 7.4 7.5 7.2 7.1 6.8 6.6 6.6 6.7 6.7 6.7 6.7 6.6 6.7 6.6 6.6 6.5 6.4
6.2 6.9 7.0 6.7 7.0 7.2 7.1 6.8 6.9 6.8 6.6 6.5 6.5 6.7 6.5 6.6 6.7 6.7 6.4 6.8 7.0 7.1 7.4 7.6 7.5 7.6 7.7 7.8 7.6 7.2 7.0 6.8 6.8 6.7 6.7 6.7 6.8 6.8 6.7 6.8 6.7 6.6 6.4 6.2
6.6 6.7 6.6 6.8 7.4 7.0 6.8 6.7 6.8 6.6 6.7 6.7 6.9 6.8 6.6 6.8 6.7 6.7 6.7 7.5 7.6 7.6 7.7 7.8 7.8 7.6 7.4 7.0 6.9 7.0 7.0 7.0 6.9 6.9 6.8 6.8 6.8 6.7 6.7 6.6 6.4 6.4 6.2 6.0
7.1 7.0 7.3 7.1 7.1 6.8 7.0 7.0 6.8 6.8 6.8 6.9 6.8 6.5 6.7 6.8 6.9 7.1 7.6 7.8 7.7 7.9 7.8 7.9 7.9 7.7 7.4 7.2 7.1 7.2 7.2 7.1 7.1 7.0 6.9 7.0 6.9 6.8 6.7 6.5 6.3 6.2 6.0 6.0
7.6 7.2 6.7 6.7 6.7 6.7 7.0 6.8 6.6 6.6 6.8 6.8 6.6 6.7 6.9 7.0 7.2 7.6 7.7 7.6 7.6 7.7 7.8 8.1 8.2 7.9 7.5 7.3 7.2 7.2 7.1 7.1 7.1 7.1 7.0 6.9 6.9 6.7 6.6 6.5 6.3 5.9 6.0 6.0
Wind_Speed
3 3 4 3 1 2 4 3 2 3 1 3 2 5 11 4 1 5 6 6 2 4 1 6 8 8 8 7 9 10 10 9 8 4 4 3 4 3 3 5 7 7 7 7
4 3 2 6 3 3 2 2 4 3 1 0 4 9 4 2 1 1 3 4 2 3 4 5 8 8 10 10 9 10 10 11 7 4 3 2 3 2 3 5 6 7 7 7
5 1 3 2 2 3 2 3 2 3 5 2 6 5 2 3 3 2 3 2 2 3 6 6 8 8 8 10 11 10 10 10 8 7 7 5 6 5 3 3 3 5 6 6
1 1 3 1 2 4 2 1 3 2 4 3 3 4 4 4 4 2 3 4 4 2 4 5 8 8 9 8 7 8 9 9 8 9 5 5 3 3 2 3 4 6 5 6
3 5 3 2 1 2 2 2 3 3 4 3 1 3 6 1 5 5 1 3 4 4 3 6 8 8 6 8 8 8 9 7 7 6 5 5 5 4 3 4 6 5 5 5
2 1 1 2 3 3 6 4 4 3 2 1 3 3 5 5 5 5 3 2 4 4 3 5 4 7 7 7 8 8 10 7 7 6 6 7 8 7 6 5 4 3 3 4
2 1 1 1 4 2 3 4 3 4 3 5 3 1 9 2 1 4 6 3 4 4 3 6 7 8 9 10 9 8 9 8 7 8 8 8 8 7 8 6 4 4 3 2
4 5 4 2 2 6 4 5 5 6 3 3 1 6 5 1 3 4 5 5 4 6 3 5 7 7 9 9 9 10 10 10 9 9 8 7 8 5 5 5 4 3 3 2
4 4 1 3 1 2 3 3 2 7 1 2 4 6 4 3 3 3 5 4 4 5 4 4 6 7 9 9 9 11 11 10 9 9 8 7 7 7 6 6 5 3 3 1
2 2 1 2 1 3 2 1 3 3 2 5 4 5 5 5 7 5 4 4 2 3 4 5 7 8 7 7 8 9 10 11 10 9 8 7 7 6 6 5 5 4 3 3
3 3 1 1 5 6 1 2 3 2 3 4 2 5 3 3 8 9 6 4 2 3 4 4 7 8 11 10 10 10 10 11 9 9 8 8 7 6 6 5 4 4 3 4
3 4 3 4 1 3 2 4 4 4 5 3 1 8 3 3 4 6 5 5 4 5 5 5 8 8 10 11 12 11 9 10 8 8 8 8 7 6 5 5 4 5 4 4
3 1 4 7 3 2 2 2 2 3 2 6 3 6 1 1 2 4 7 4 3 5 9 9 9 10 11 11 11 10 10 9 9 8 7 6 5 4 5 4 4 5 5 5
4 2 7 9 6 4 3 4 4 3 3 5 12 19 3 8 11 8 8 7 8 8 7 8 9 9 8 9 8 8 8 8 6 6 5 5 4 4 4 3 4 4 5 4
2 4 5 6 6 3 6 7 7 9 12 12 19 15 5 6 11 13 8 7 6 8 7 6 7 8 8 8 8 7 7 5 4 5 5 4 3 3 3 3 3 4 4 4
3 3 2 3 8 9 12 6 10 16 15 14 18 21 3 5 1 9 12 13 11 10 8 8 8 8 7 7 7 6 5 5 4 4 4 3 3 3 4 4 4 4 4 4
1 1 4 6 2 11 10 7 6 2 3 4 7 5 4 4 2 3 7 8 8 9 8 9 8 7 6 6 5 5 4 3 4 4 3 2 2 3 3 3 3 3 4 4
3 3 2 6 3 4 6 3 3 4 5 4 5 3 3 4 5 6 4 4 6 7 7 7 6 5 5 3 4 5 4 3 3 3 2 2 2 2 3 3 4 5 4 5
6 3 3 2 3 6 2 2 1 3 6 2 4 2 2 4 3 3 4 3 4 6 6 4 5 5 4 4 3 3 4 3 3 3 3 3 3 5 5 5 6 6 5 6
2 1 2 2 4 5 4 3 3 3 5 3 2 3 2 2 2 1 5 5 6 6 5 6 6 5 5 3 3 3 3 2 3 3 4 4 5 5 5 6 6 5 5 7
1 1 5 4 4 8 4 4 2 3 5 3 4 5 5 4 4 3 7 5 3 3 5 5 5 5 4 2 1 2 1 3 4 4 5 5 5 5 6 6 5 6 6 7
5 4 4 3 3 7 6 2 5 5 3 4 4 5 5 3 5 4 6 5 4 5 3 2 4 3 1 1 3 3 3 3 4 4 5 5 5 5 5 6 6 6 6 7
2 6 4 7 6 4 5 5 3 4 5 5 5 4 6 6 5 7 5 6 6 5 4 1 3 3 3 2 2 2 2 4 5 5 5 5 5 5 6 6 6 6 6 6
4 4 3 2 3 5 4 5 4 5 7 5 5 7 7 6 6 5 5 5 4 2 3 3 3 1 3 2 2 4 5 5 5 5 5 5 4 6 4 5 5 6 5 5
4 3 4 6 7 7 5 7 8 7 3 5 5 7 8 5 5 5 4 5 4 4 2 2 3 2 4 4 4 4 4 4 4 4 4 5 5 6 6 6 6 6 7 8
4 6 4 6 7 5 6 5 5 8 9 7 6 4 3 5 6 4 5 4 5 5 3 2 2 3 4 3 6 5 3 3 3 4 4 4 5 5 5 6 7 12 15 16
Wind_Direction
10 74 222 229 147 95 115 134 244 263 78 311 238 277 283 287 15 4 4 8 143 200 240 173 173 164 154 156 158 162 151 152 144 140 133 127 127 125 113 116 114 107 93 76
25 222 140 116 105 113 107 143 256 273 58 233 347 294 274 254 127 351 347 12 40 135 121 139 151 157 166 165 165 158 157 158 160 137 125 129 144 128 121 129 110 111 101 91
170 155 150 115 123 137 172 192 218 227 328 43 322 305 232 202 162 111 26 345 16 171 160 157 158 164 157 164 166 163 159 156 152 138 124 102 100 101 117 136 127 123 117 108
149 117 159 136 198 134 253 123 113 49 40 258 10 269 265 222 216 119 18 20 11 23 152 167 162 161 167 160 143 140 144 147 147 154 142 150 148 151 151 141 129 123 120 122
234 158 164 181 218 187 188 85 91 96 88 41 6 99 265 8 238 197 123 17 4 345 206 181 174 156 150 146 147 139 134 135 140 150 149 141 130 112 118 116 121 111 92 94
86 5 57 118 68 60 143 87 57 60 98 22 228 151 273 193 204 152 153 30 5 359 100 131 133 129 128 130 129 129 129 127 132 125 121 125 126 126 122 124 122 117 103 89
84 169 76 86 99 36 85 72 327 343 7 224 171 48 248 214 97 159 155 94 24 21 106 135 150 149 143 141 135 131 127 113 107 107 107 114 120 124 127 132 132 133 126 106
166 299 165 0 154 182 179 150 163 219 225 273 115 231 249 149 79 79 97 103 60 47 54 147 154 150 143 141 139 129 122 119 115 109 105 104 108 110 108 115 116 111 113 126
150 257 119 57 109 87 183 201 127 101 53 20 226 285 269 138 133 124 125 101 69 42 44 103 137 145 142 142 139 134 128 120 116 114 111 105 108 109 115 114 110 108 107 97
180 345 358 105 104 39 150 146 74 8 272 258 272 283 245 221 204 178 165 134 89 58 67 91 120 128 119 118 120 117 118 120 122 117 111 106 102 97 100 96 89 83 72 52
129 106 263 100 197 183 71 321 36 118 156 213 279 252 212 230 201 187 171 148 97 62 60 93 108 116 118 111 109 111 115 115 108 104 99 93 85 81 79 77 67 55 47 32
4 149 233 228 297 166 125 193 153 146 253 226 244 267 360 263 210 144 174 164 151 125 100 93 107 107 115 117 121 116 106 97 96 94 86 77 71 68 72 64 48 37 35 25
212 332 349 326 1 27 221 211 132 117 107 202 175 263 54 87 174 214 191 188 152 138 130 125 120 119 119 112 106 97 90 84 76 80 84 77 70 64 60 57 41 30 19 10
155 170 184 240 219 135 200 204 200 166 169 242 231 273 230 223 220 219 208 192 164 150 133 128 113 111 102 100 103 97 90 90 100 95 92 85 72 64 55 47 39 17 360 350
123 229 225 258 271 213 222 217 192 203 236 247 274 264 279 239 217 210 181 150 158 138 132 125 115 110 107 103 100 104 112 108 92 87 78 60 52 57 44 31 13 1 355 344
32 279 62 284 255 255 274 252 227 236 250 265 272 280 307 298 244 173 176 161 170 162 151 130 121 120 119 124 132 129 115 93 76 66 56 41 41 26 14 360 351 344 340 328
284 259 347 280 69 326 302 246 230 207 218 188 253 291 341 295 198 151 151 154 159 154 139 140 139 139 143 135 120 103 93 74 59 54 38 31 23 7 344 330 315 312 315 313
205 124 197 283 4 273 245 207 171 209 258 240 287 340 8 62 63 62 54 126 132 125 127 126 139 140 137 126 109 117 99 68 54 35 21 5 339 309 301 320 337 333 325 320
218 191 256 260 217 297 83 326 73 53 287 231 161 178 157 126 111 80 62 83 115 116 131 138 137 129 132 116 103 85 53 27 2 356 348 335 324 330 328 333 328 317 304 301
82 237 177 16 279 262 226 245 204 163 275 240 175 212 175 34 183 171 114 110 125 131 141 145 135 127 130 71 45 53 41 9 340 326 323 331 325 311 308 309 302 294 290 294
333 67 219 244 251 283 221 220 177 89 247 206 189 202 180 195 203 149 141 137 100 88 92 78 103 134 108 76 115 66 17 331 325 329 319 307 306 304 291 286 281 283 289 288
171 151 212 150 215 279 166 134 153 216 215 205 203 202 190 206 141 163 179 154 155 142 136 84 116 130 143 61 68 20 318 317 314 299 300 301 299 296 292 282 283 281 278 278
302 190 197 179 219 221 207 221 235 188 203 210 177 188 172 165 198 175 190 174 175 177 168 143 105 32 1 39 121 227 259 309 303 300 292 291 293 290 285 281 281 278 266 272
270 183 223 40 284 250 256 252 239 227 220 202 189 170 167 184 178 175 177 167 160 170 155 143 101 358 304 273 242 237 282 287 284 282 288 291 282 290 276 287 279 272 268 273
205 138 228 264 289 301 273 240 247 246 218 183 170 181 192 150 180 175 166 163 176 181 158 142 178 223 270 302 293 261 272 275 281 288 289 294 301 293 291 285 276 275 266 253
192 206 175 234 235 203 257 260 251 212 210 209 179 162 129 164 183 163 158 158 172 174 170 159 223 224 267 288 296 299 274 274 257 283 289 291 294 289 289 287 290 285 281 281